Tracking 19572 objects as of 24-Feb-2019
HD Live streaming from Space Station
objects crossing your sky now

CZ-4C DEB

Track CZ-4C DEB now!
10-day predictions


NORAD ID: 39231
Int'l Code: 2013-037H
Perigee: 675.3 km
Apogee: 1,046.5 km
Inclination: 98.1 °
Period: 102.0 minutes
Semi major axis: 7231 km
RCS: Unknown
Launch date: July 19, 2013
Source: People's Republic of China (PRC)
Launch site: Taiyaun Space Center, China (TSC)

Note: This is SATELLITE DEBRIS
aabbcc
Your satellite tracking list
Your tracking list is empty




NASA's NSSDC Master Catalog

Two Line Element Set (TLE):
1 39231U 13037H   19053.42546804  .00000205  00000-0  98273-4 0  9993
2 39231  98.0978 270.5204 0256647  60.8920 301.7688 14.11634537282994
Source of the keplerian elements: AFSPC